This is the latest recevied weather packets stored in our database for station/object WB9FIU. If no packets are shown the sender has not sent any weather packets the latest 10 day(s).
| Time | Temp. | Humidity | Pressure | Rain* | Wind** | Luminosity | Snow |
|---|---|---|---|---|---|---|---|
| 1778076842 | 11.11° C | 70% | 1012.8 hPa | 0 mm | - | - | - |
| 1778076785 | 11.11° C | 68% | 1012.8 hPa | 0 mm | - | - | - |
| 1778076724 | 11.11° C | 68% | 1012.8 hPa | 0 mm | - | - | - |
| 1778076662 | 11.11° C | 72% | 1012.6 hPa | 0 mm | - | - | - |
| 1778076542 | 11.11° C | 71% | 1012.4 hPa | 0 mm | - | - | - |
| 1778076422 | 10.56° C | 72% | 1012.2 hPa | 0 mm | - | - | - |
| 1778076302 | 10.56° C | 70% | 1012.2 hPa | 0 mm | - | - | - |
| 1778076240 | 10.56° C | 71% | 1012.2 hPa | 0 mm | - | - | - |
| 1778076182 | 10.56° C | 71% | 1012.2 hPa | 0 mm | - | - | - |
| 1778076124 | 10.56° C | 71% | 1012.2 hPa | 0 mm | - | - | - |
| 1778076062 | 10.56° C | 72% | 1012.3 hPa | 0 mm | - | - | - |
| 1778075942 | 10.56° C | 74% | 1012.2 hPa | 0 mm | - | - | - |
| 1778075882 | 10.56° C | 74% | 1012.2 hPa | 0 mm | - | - | - |
| 1778075822 | 10.56° C | 74% | 1012.2 hPa | 0 mm | - | - | - |
| 1778075762 | 10.56° C | 72% | 1012.1 hPa | 0 mm | - | - | - |
| 1778075703 | 10.56° C | 72% | 1012.1 hPa | 0 mm | - | - | - |
| 1778075642 | 10.56° C | 72% | 1012.1 hPa | 0 mm | - | - | - |
| 1778075582 | 10.56° C | 73% | 1012.2 hPa | 0 mm | - | - | - |
| 1778075522 | 10.56° C | 73% | 1012.1 hPa | 0 mm | - | - | - |
| 1778075462 | 10.56° C | 73% | 1012 hPa | 0 mm | - | - | - |
| 1778075403 | 10.56° C | 74% | 1012.1 hPa | 0 mm | - | - | - |
| 1778075341 | 10.56° C | 74% | 1012 hPa | 0 mm | - | - | - |
| 1778075282 | 10.56° C | 75% | 1011.9 hPa | 0 mm | - | - | - |
| 1778075162 | 10.56° C | 74% | 1011.9 hPa | 0 mm | - | - | - |
| 1778075102 | 10.56° C | 75% | 1011.9 hPa | 0 mm | - | - | - |
* Rain latest hour (hover to see other rain measurements)
** Current wind speed in m/s (hover to see current wind gust speed)